Weather History for Naples, Italy

Change the Weather History Date:

Thursday, September 12, 2013

  Actual Average Record
Temperature  
Mean Temperature 72 °F -  
Max Temperature 77 °F 76 °F 86 °F (2006)
Min Temperature 68 °F 57 °F 53 °F (2001)
Cooling Degree Days 8    
Growing Degree Days 22 (Base 50)    
Moisture  
Dew Point 60 °F    
Average Humidity 66    
Maximum Humidity 88    
Minimum Humidity 47    
Precipitation  
Precipitation 0.00 in 0.13 in - ()
Sea Level Pressure  
Sea Level Pressure 29.98 in    
Wind  
Wind Speed 6 mph ()    
Max Wind Speed 16 mph    
Max Gust Speed 28 mph    
Visibility 6.2 miles    
Events Rain , Thunderstorm    
Averages and records for this station are not official NWS values.
T = Trace of Precipitation, MM = Missing Value Source: Averaged Metar Reports

Daily Weather History Graph

Daily Weather History Graph

Search for Another Location

Airport:

Trip Planner

Search our weather history database for the weather conditions in past years. The results will help you decide how hot, cold, wet, or windy it might be!

Date:

Astronomy

Sep. 12, 2013 Rise Set
Actual Time 6:40 AM CEST 7:17 PM CEST
Civil Twilight 6:12 AM CEST 7:44 PM CEST
Nautical Twilight 5:40 AM CEST 8:17 PM CEST
Astronomical Twilight 5:06 AM CEST 8:50 PM CEST
Moon 1:54 PM CEST (9/12) 11:51 PM CEST (9/12)
Length of Visible Light 13h 31m
Length of Day
12h 36m
Waxing Crescent, 47% of the Moon is Illuminated
Sep 12
Waxing Crescent
Sep 12
First Quarter
Sep 19
Full
Sep 27
Last Quarter
Oct 5
New

Hourly Weather History & Observations

Time (CEST) Temp. Dew Point Humidity Pressure Visibility Wind Dir Wind Speed Gust Speed Precip Events Conditions
12:20 AM 75.2 °F 64.4 °F 69% 30.01 in 6.2 mi SW 4.6 mph - N/A   Partly Cloudy
12:50 AM 75.2 °F 64.4 °F 69% 30.01 in 6.2 mi SW 5.8 mph - N/A   Partly Cloudy
1:20 AM 75.2 °F 64.4 °F 69% 30.01 in 6.2 mi SW 4.6 mph - N/A Thunderstorm Partly Cloudy
1:50 AM 73.4 °F 64.4 °F 73% 29.98 in 6.2 mi WSW 3.5 mph - N/A Thunderstorm Partly Cloudy
2:20 AM 69.8 °F 62.6 °F 78% 29.98 in 6.2 mi NNW 12.7 mph - N/A   Partly Cloudy
2:50 AM 69.8 °F 62.6 °F 78% 29.98 in 6.2 mi NW 9.2 mph - N/A   Scattered Clouds
3:20 AM 69.8 °F 62.6 °F 78% 29.98 in 6.2 mi Variable 3.5 mph - N/A   Scattered Clouds
3:50 AM 69.8 °F 62.6 °F 78% 29.98 in 6.2 mi East 3.5 mph - N/A   Mostly Cloudy
4:20 AM 69.8 °F 64.4 °F 83% 29.98 in 6.2 mi ESE 3.5 mph - N/A   Mostly Cloudy
4:50 AM 68.0 °F 64.4 °F 88% 29.98 in 6.2 mi Variable 2.3 mph - N/A   Scattered Clouds
5:20 AM 68.0 °F 64.4 °F 88% 29.98 in 6.2 mi NE 3.5 mph - N/A   Partly Cloudy
5:50 AM 68.0 °F 64.4 °F 88% 29.98 in 6.2 mi NNE 2.3 mph - N/A   Partly Cloudy
6:20 AM 68.0 °F 64.4 °F 88% 29.98 in 6.2 mi NNE 3.5 mph - N/A   Partly Cloudy
6:50 AM 68.0 °F 64.4 °F 88% 29.98 in 6.2 mi NE 2.3 mph - N/A   Partly Cloudy
7:20 AM 68.0 °F 64.4 °F 88% 29.98 in 6.2 mi Variable 2.3 mph - N/A   Partly Cloudy
7:50 AM 71.6 °F 66.2 °F 83% 29.98 in 6.2 mi Calm Calm - N/A   Scattered Clouds
8:20 AM 73.4 °F 64.4 °F 73% 29.98 in 6.2 mi Variable 1.2 mph - N/A   Partly Cloudy
8:50 AM 75.2 °F 62.6 °F 65% 29.95 in 6.2 mi Variable 1.2 mph - N/A   Partly Cloudy
9:20 AM 77.0 °F 64.4 °F 65% 29.95 in 6.2 mi South 4.6 mph - N/A   Scattered Clouds
9:50 AM 75.2 °F 64.4 °F 69% 29.98 in 6.2 mi South 4.6 mph - N/A   Scattered Clouds
10:20 AM 77.0 °F 66.2 °F 69% 29.98 in 6.2 mi South 6.9 mph - N/A   Mostly Cloudy
10:50 AM 73.4 °F 66.2 °F 78% 29.95 in 6.2 mi SSW 6.9 mph - N/A   Mostly Cloudy
11:20 AM 73.4 °F 66.2 °F 78% 29.95 in 6.2 mi SW 8.1 mph - N/A   Mostly Cloudy
11:50 AM 71.6 °F 64.4 °F 78% 29.98 in 5.0 mi West 16.1 mph 27.6 mph N/A Rain Heavy Rain
12:20 PM 75.2 °F 62.6 °F 65% 29.98 in 6.2 mi WNW 11.5 mph - N/A   Mostly Cloudy
12:50 PM 75.2 °F 60.8 °F 61% 29.98 in 6.2 mi West 15.0 mph 26.5 mph N/A   Mostly Cloudy
1:20 PM 77.0 °F 59.0 °F 54% 29.98 in 6.2 mi WNW 15.0 mph - N/A   Mostly Cloudy
1:50 PM 75.2 °F 57.2 °F 53% 29.98 in 6.2 mi WNW 15.0 mph - N/A   Mostly Cloudy
2:20 PM 77.0 °F 55.4 °F 47% 29.98 in 6.2 mi West 15.0 mph - N/A   Scattered Clouds
2:50 PM 77.0 °F 57.2 °F 50% 29.98 in 6.2 mi WNW 13.8 mph - N/A   Scattered Clouds
3:20 PM 77.0 °F 57.2 °F 50% 29.98 in 6.2 mi West 13.8 mph - N/A   Scattered Clouds
3:50 PM 77.0 °F 55.4 °F 47% 29.95 in 6.2 mi West 11.5 mph - N/A   Partly Cloudy
4:20 PM 77.0 °F 55.4 °F 47% 29.95 in 6.2 mi West 15.0 mph - N/A   Partly Cloudy
4:50 PM 75.2 °F 53.6 °F 47% 29.95 in 6.2 mi West 15.0 mph - N/A   Partly Cloudy
5:50 PM 75.2 °F 53.6 °F 47% 29.98 in 6.2 mi West 12.7 mph - N/A   Scattered Clouds
6:20 PM 73.4 °F 53.6 °F 50% 29.98 in 6.2 mi West 11.5 mph - N/A   Scattered Clouds
6:50 PM 73.4 °F 53.6 °F 50% 29.98 in 6.2 mi West 10.4 mph - N/A   Scattered Clouds
7:20 PM 73.4 °F 51.8 °F 47% 29.98 in 6.2 mi West 10.4 mph - N/A   Partly Cloudy
7:50 PM 71.6 °F 51.8 °F 50% 29.98 in 6.2 mi West 8.1 mph - N/A   Partly Cloudy
8:20 PM 69.8 °F 53.6 °F 56% 29.98 in 6.2 mi SW 3.5 mph - N/A   Partly Cloudy
8:50 PM 71.6 °F 53.6 °F 53% 30.01 in 6.2 mi SSW 3.5 mph - N/A   Partly Cloudy
9:20 PM 69.8 °F 55.4 °F 60% 30.01 in 6.2 mi WSW 4.6 mph - N/A   Partly Cloudy
9:50 PM 68.0 °F 55.4 °F 64% 30.01 in 6.2 mi West 5.8 mph - N/A   Partly Cloudy
10:20 PM 69.8 °F 53.6 °F 56% 30.01 in 6.2 mi SW 3.5 mph - N/A   Partly Cloudy
10:50 PM 69.8 °F 55.4 °F 60% 30.01 in 6.2 mi SSW 3.5 mph - N/A   Partly Cloudy
11:20 PM 69.8 °F 55.4 °F 60% 30.01 in 6.2 mi SW 4.6 mph - N/A   Partly Cloudy
11:50 PM 68.0 °F 55.4 °F 64% 30.01 in 6.2 mi Variable 2.3 mph - N/A   Partly Cloudy